Weather History for Atwater, CA

Change the Weather History Date:

Monday, October 14, 2013

  Actual Average (KMCE) Record (KMCE)
Temperature  
Mean Temperature 61 °F 64 °F  
Max Temperature 78 °F 79 °F 95 °F (2010)
Min Temperature 44 °F 49 °F 43 °F (2008)
Degree Days  
Heating Degree Days 4    
Month to date heating degree days  
Since 1 July heating degree days  
Cooling Degree Days 0    
Month to date cooling degree days  
Year to date cooling degree days  
Growing Degree Days 11 (Base 50)    
Moisture  
Dew Point 43 °F    
Average Humidity 69    
Maximum Humidity 100    
Minimum Humidity 24    
Precipitation  
Precipitation 0.00 in 0.03 in 0.01 in (2009)
Month to date precipitation 0.19  
Year to date precipitation 9.18  
Since 1 July precipitation 0.50  
Snow  
Snow 0.00 in - - ()
Month to date snowfall  
Since 1 July snowfall  
Since 1 September snowfall  
Snow Depth -    
Sea Level Pressure  
Sea Level Pressure 30.05 in    
Wind  
Wind Speed 3 mph (NNE)    
Max Wind Speed 9 mph    
Max Gust Speed -    
Visibility 10 miles    
Events      
T = Trace of Precipitation, MM = Missing Value Source: NWS Daily Summary

Daily Weather History Graph

Daily Weather History Graph

Search for Another Location

Airport:

Trip Planner

Search our weather history database for the weather conditions in past years. The results will help you decide how hot, cold, wet, or windy it might be!

Date:

Astronomy

Oct. 14, 2013 Rise Set
Actual Time 7:09 AM PDT 6:26 PM PDT
Civil Twilight 6:43 AM PDT 6:52 PM PDT
Nautical Twilight 6:13 AM PDT 7:22 PM PDT
Astronomical Twilight 5:42 AM PDT 7:52 PM PDT
Moon 3:54 PM PDT (10/14) 2:37 AM PDT (10/14)
Length of Visible Light 12h 08m
Length of Day
11h 16m
Waxing Gibbous, 80% of the Moon is Illuminated
Oct 14
Waxing Gibbous
Oct 18
Full
Oct 26
Last Quarter
Nov 3
New
Nov 9
First Quarter

Hourly Weather History & Observations

Time (PDT) Temp. Windchill Dew Point Humidity Pressure Visibility Wind Dir Wind Speed Gust Speed Precip Events Conditions
12:15 AM 51.8 °F - 42.8 °F 71% 30.04 in 10.0 mi NE 3.5 mph - N/A   Clear
12:35 AM 51.8 °F - 42.8 °F 71% 30.04 in 10.0 mi Calm Calm - N/A   Clear
12:55 AM 50.0 °F - 44.6 °F 82% 30.05 in 10.0 mi Calm Calm - N/A   Clear
1:15 AM 51.8 °F - 42.8 °F 71% 30.05 in 10.0 mi Calm Calm - N/A   Clear
1:35 AM 51.8 °F - 44.6 °F 76% 30.06 in 10.0 mi SSW 3.5 mph - N/A   Clear
1:55 AM 48.2 °F - 42.8 °F 82% 30.06 in 10.0 mi SSW 5.8 mph - N/A   Clear
2:15 AM 48.2 °F - 42.8 °F 82% 30.07 in 10.0 mi Calm Calm - N/A   Clear
2:35 AM 50.0 °F - 42.8 °F 76% 30.06 in 10.0 mi SE 4.6 mph - N/A   Clear
2:55 AM 46.4 °F 45.2 °F 42.8 °F 87% 30.06 in 10.0 mi SSE 3.5 mph - N/A   Clear
3:15 AM 46.4 °F - 44.6 °F 93% 30.06 in 10.0 mi Calm Calm - N/A   Clear
3:35 AM 46.4 °F - 44.6 °F 93% 30.06 in 10.0 mi Calm Calm - N/A   Clear
3:55 AM 46.4 °F 45.2 °F 44.6 °F 93% 30.06 in 10.0 mi WSW 3.5 mph - N/A   Clear
4:15 AM 46.4 °F - 41.0 °F 81% 30.06 in 10.0 mi Calm Calm - N/A   Clear
4:35 AM 44.6 °F 43.1 °F 44.6 °F 100% 30.07 in 10.0 mi SSE 3.5 mph - N/A   Clear
4:55 AM 44.6 °F - 44.6 °F 100% 30.07 in 10.0 mi Calm Calm - N/A   Clear
5:15 AM 44.6 °F 42.2 °F 44.6 °F 100% 30.07 in 10.0 mi SE 4.6 mph - N/A   Clear
5:35 AM 44.6 °F 42.2 °F 42.8 °F 93% 30.08 in 10.0 mi SE 4.6 mph - N/A   Clear
5:55 AM 44.6 °F 43.1 °F 42.8 °F 93% 30.08 in 10.0 mi SE 3.5 mph - N/A   Clear
6:15 AM 44.6 °F 43.1 °F 44.6 °F 100% 30.09 in 10.0 mi SSE 3.5 mph - N/A   Clear
6:35 AM 44.6 °F - 42.8 °F 93% 30.09 in 10.0 mi Calm Calm - N/A   Clear
6:45 AM 44.6 °F - 42.8 °F 93% 30.09 in 10.0 mi Calm Calm - N/A   Clear
6:55 AM 44.6 °F - 42.8 °F 93% 30.10 in 10.0 mi Calm Calm - N/A   Clear
7:45 AM 46.4 °F - 42.8 °F 87% 30.10 in 10.0 mi Calm Calm - N/A   Clear
8:45 AM 57.2 °F - 42.8 °F 59% 30.12 in 10.0 mi Calm Calm - N/A   Clear
9:45 AM 62.6 °F - 41.0 °F 45% 30.12 in 10.0 mi Calm Calm - N/A   Clear
10:45 AM 66.2 °F - 39.2 °F 37% 30.12 in 10.0 mi Calm Calm - N/A   Clear
11:45 AM 71.6 °F - 39.2 °F 31% 30.10 in 10.0 mi Calm Calm - N/A   Clear
12:50 PM 75.2 °F - 39.2 °F 27% 30.08 in 10.0 mi Calm Calm - N/A   Clear
1:45 PM 77.0 °F - 39.2 °F 26% 30.05 in 10.0 mi WNW 5.8 mph - N/A   Clear
2:45 PM 78.8 °F - 39.2 °F 24% 30.03 in 10.0 mi NNW 5.8 mph - N/A   Clear
3:45 PM 78.8 °F - 41.0 °F 26% 30.01 in 10.0 mi North 4.6 mph - N/A   Clear
4:45 PM 78.8 °F - 39.2 °F 24% 30.00 in 10.0 mi North 9.2 mph - N/A   Clear
5:45 PM 75.2 °F - 39.2 °F 27% 29.99 in 10.0 mi North 9.2 mph - N/A   Clear
6:45 PM 66.2 °F - 41.0 °F 40% 29.99 in 10.0 mi NNW 6.9 mph - N/A   Clear
7:50 PM 62.6 °F - 42.8 °F 48% 30.00 in 10.0 mi NNW 9.2 mph - N/A   Clear
8:45 PM 60.8 °F - 42.8 °F 52% 30.00 in 10.0 mi NNW 9.2 mph - N/A   Clear
9:15 PM 57.2 °F - 42.8 °F 59% 30.01 in 10.0 mi North - - N/A   Clear
9:35 PM 57.2 °F - 44.6 °F 63% 30.01 in 10.0 mi North 3.5 mph - N/A   Clear
9:55 PM 53.6 °F - 44.6 °F 72% 30.02 in 8.0 mi ENE 3.5 mph - N/A   Clear
10:15 PM 53.6 °F - 44.6 °F 72% 30.02 in 10.0 mi Calm Calm - N/A   Clear
10:35 PM 53.6 °F - 46.4 °F 77% 30.02 in 10.0 mi NNE 4.6 mph - N/A   Clear
10:55 PM 53.6 °F - 44.6 °F 72% 30.02 in 10.0 mi North 4.6 mph - N/A   Clear
11:15 PM 53.6 °F - 42.8 °F 67% 30.03 in 10.0 mi North 3.5 mph - N/A   Clear
11:35 PM 51.8 °F - 44.6 °F 76% 30.03 in 10.0 mi North 3.5 mph - N/A   Clear
11:55 PM 51.8 °F - 44.6 °F 76% 30.02 in 10.0 mi North - - N/A   Clear